Location: Unspecified
(0.0000°N, 0.0000°E)
Time: 21:57:19
(UTC+00:00)

Explorer 11/Cluster Stage 4 - All Passes

Search period start: 01 October 2020 00:00
Search period end: 11 October 2020 00:00
Orbit: 467 x 1258 km, 28.8° (Epoch: 01 October)

Date Brightness Start Highest point End Pass type
(mag) Time Alt. Az. Time Alt. Az. Time Alt. Az.
01 Oct - 04:13:37 10° N 04:17:03 13° NNE 04:20:38 10° NE visible
01 Oct - 05:59:39 10° NW 06:07:02 40° NNE 06:14:34 10° E daylight
01 Oct - 07:48:22 10° WNW 07:56:37 72° SSW 08:04:22 10° SE daylight
01 Oct - 09:40:02 10° WSW 09:46:05 23° SSW 09:51:35 10° SSE daylight
01 Oct - 18:52:36 10° SW 18:56:09 54° SSE 18:59:46 10° ENE visible
01 Oct - 20:41:48 10° WNW 20:44:25 18° NNW 20:47:12 10° NNE visible
02 Oct - 04:02:12 10° N 04:06:15 15° NNE 04:10:30 10° ENE visible
02 Oct - 05:48:32 10° NW 05:56:02 46° NNE 06:03:51 10° E daylight
02 Oct - 07:37:26 10° WNW 07:45:35 62° SSW 07:53:23 10° SE daylight
02 Oct - 09:29:31 10° WSW 09:35:11 20° SSW 09:40:25 10° SSE daylight
02 Oct - 16:56:07 10° S 16:57:03 11° SSE 16:57:58 10° SE daylight
02 Oct - 18:41:48 10° SW 18:45:29 76° SSE 18:49:06 10° ENE visible
02 Oct - 20:31:54 10° WNW 20:33:46 13° NNW 20:35:43 10° N visible
03 Oct - 03:50:55 10° N 03:55:24 17° NNE 04:00:12 10° ENE visible
03 Oct - 05:37:28 10° NW 05:45:01 53° NNE 05:53:01 10° ESE daylight
03 Oct - 07:26:35 10° WNW 07:34:32 54° SSW 07:42:21 10° SE daylight
03 Oct - 09:19:06 10° WSW 09:24:18 18° SSW 09:29:12 10° SSE daylight
03 Oct - 16:44:06 10° S 16:46:26 14° SSE 16:48:36 10° ESE daylight
03 Oct - 18:31:04 10° WSW 18:34:49 77° NNW 18:38:24 10° NE visible
04 Oct - 03:39:43 10° NNW 03:44:31 19° NNE 03:49:47 10° ENE visible
04 Oct - 05:26:28 10° NW 05:33:58 61° NNE 05:42:08 10° ESE visible
04 Oct - 07:15:48 10° W 07:23:30 46° SSW 07:31:14 10° SE daylight
04 Oct - 09:08:48 10° WSW 09:13:27 16° SSW 09:17:54 10° S daylight
04 Oct - 16:32:38 10° SSW 16:35:48 19° SSE 16:38:38 10° ESE daylight
04 Oct - 18:20:22 10° WSW 18:24:08 54° NNW 18:27:39 10° NE visible
05 Oct - 03:28:35 10° NNW 03:33:38 22° NNE 03:39:17 10° ENE visible
05 Oct - 05:15:31 10° NW 05:22:56 71° NNE 05:31:11 10° ESE visible
05 Oct - 07:05:06 10° W 07:12:31 40° SSW 07:20:04 10° SE daylight
05 Oct - 08:58:38 10° SW 09:02:37 14° SSW 09:06:30 10° S daylight
05 Oct - 16:21:20 10° SSW 16:25:09 26° SSE 16:28:28 10° E daylight
05 Oct - 18:09:42 10° WSW 18:13:26 39° NNW 18:16:51 10° NE visible
06 Oct - 03:17:30 10° NNW 03:22:43 25° NNE 03:28:41 10° E visible
06 Oct - 05:04:38 10° NW 05:11:54 82° NNE 05:20:09 10° ESE visible
06 Oct - 06:54:28 10° W 07:01:31 35° SSW 07:08:52 10° SE daylight
06 Oct - 08:48:40 10° SW 08:51:50 12° SSW 08:54:56 10° S daylight
06 Oct - 16:10:06 10° SW 16:14:29 34° SSE 16:18:10 10° E daylight
06 Oct - 17:59:07 10° W 18:02:43 30° NNW 18:05:59 10° NNE daylight
07 Oct - 03:06:28 10° NNW 03:11:48 28° NNE 03:18:00 10° E visible
07 Oct - 04:53:48 10° WNW 05:00:53 86° SSW 05:09:05 10° ESE visible
07 Oct - 06:43:55 10° W 06:50:35 30° SSW 06:57:34 10° SSE daylight
07 Oct - 08:39:04 10° SSW 08:41:04 11° SSW 08:43:03 10° S daylight
07 Oct - 14:12:21 10° S 14:14:33 12° SSE 14:16:36 10° SE daylight
07 Oct - 15:58:57 10° SW 16:03:48 45° SSE 16:07:47 10° ENE daylight
07 Oct - 17:48:35 10° W 17:52:00 24° NNW 17:55:04 10° NNE daylight
08 Oct - 02:55:30 10° NNW 03:00:51 32° NNE 03:07:14 10° E visible
08 Oct - 04:43:03 10° WNW 04:49:53 74° SSW 04:57:57 10° SE visible
08 Oct - 06:33:29 10° WSW 06:39:40 26° SSW 06:46:14 10° SSE daylight
08 Oct - 14:00:21 10° SSW 14:03:54 16° SSE 14:07:04 10° ESE daylight
08 Oct - 15:47:50 10° SW 15:53:06 61° SSE 15:57:18 10° ENE daylight
08 Oct - 17:38:07 10° W 17:41:15 19° NNW 17:44:05 10° NNE daylight
09 Oct - 02:44:35 10° NW 02:49:56 37° NNE 02:56:26 10° E visible
09 Oct - 04:32:22 10° WNW 04:38:56 62° SSW 04:46:45 10° SE visible
09 Oct - 06:23:10 10° WSW 06:28:47 22° SSW 06:34:48 10° SSE daylight
09 Oct - 13:48:41 10° SSW 13:53:14 20° SSE 13:57:08 10° ESE daylight
09 Oct - 15:36:45 10° WSW 15:42:20 79° SSE 15:46:45 10° ENE daylight
09 Oct - 17:27:45 10° WNW 17:30:30 16° NNW 17:33:01 10° N daylight
10 Oct - 02:33:43 10° NW 02:39:00 43° NNE 02:45:33 10° ESE visible
10 Oct - 04:21:44 10° WNW 04:28:00 52° SSW 04:35:31 10° SE visible
10 Oct - 06:12:58 10° WSW 06:17:58 19° SSW 06:23:19 10° SSE daylight
10 Oct - 13:37:10 10° SSW 13:42:30 25° SSE 13:47:01 10° ESE daylight
10 Oct - 15:25:43 10° WSW 15:31:33 82° NNW 15:36:08 10° ENE daylight
10 Oct - 17:17:32 10° WNW 17:19:45 13° NNW 17:21:48 10° N daylight
